Tracking 35331 objects as of 16-Sep-2026
HD Live streaming from Space Station
objects crossing your sky now

CZ-3C DEB

Track CZ-3C DEB now!


NORAD ID: 42478
Int'l Code: 2012-008AN
Launch date: February 24, 2012
Source: People's Republic of China (PRC)
Launch site: Xichang Space Center, China (XSC)

Note: This is SATELLITE DEBRIS
Your satellite tracking list
Your tracking list is empty




NASA's NSSDC Master Catalog

Two Line Element Set (TLE):
1 42478U 12008AN  24164.29735707 -.00000072  00000-0  00000+0 0  9992
2 42478  20.2787 114.2210 6806610  94.3229 339.6687  2.24186473 72974
Source of the keplerian elements: AFSPC